TimeEDT,TemperatureF,Dew PointF,Humidity,Sea Level PressureIn,VisibilityMPH,Wind Direction,Wind SpeedMPH,Gust SpeedMPH,PrecipitationIn,Events,Conditions,WindDirDegrees,DateUTC
12:54 AM,73.9,68.0,82,30.11,10.0,Calm,Calm,-,N/A,,Scattered Clouds,0,2013-07-03 04:54:00
1:54 AM,73.0,66.9,81,30.11,10.0,Variable,6.9,-,N/A,,Mostly Cloudy,0,2013-07-03 05:54:00
2:54 AM,73.0,66.9,81,30.12,10.0,East,8.1,-,N/A,,Mostly Cloudy,80,2013-07-03 06:54:00
3:20 AM,71.6,66.2,83,30.13,10.0,East,4.6,-,N/A,,Scattered Clouds,90,2013-07-03 07:20:00
3:54 AM,73.0,66.9,81,30.12,10.0,Calm,Calm,-,N/A,,Scattered Clouds,0,2013-07-03 07:54:00
4:18 AM,73.4,66.2,78,30.13,10.0,NE,3.5,-,N/A,,Mostly Cloudy,50,2013-07-03 08:18:00
4:54 AM,73.0,66.9,81,30.12,10.0,East,4.6,-,N/A,,Mostly Cloudy,90,2013-07-03 08:54:00
5:15 AM,73.4,66.2,78,30.14,10.0,SE,6.9,-,N/A,,Mostly Cloudy,140,2013-07-03 09:15:00
5:54 AM,73.0,68.0,84,30.14,10.0,SSE,4.6,-,N/A,,Overcast,160,2013-07-03 09:54:00
6:39 AM,73.4,68.0,83,30.17,10.0,Calm,Calm,-,N/A,,Mostly Cloudy,0,2013-07-03 10:39:00
6:54 AM,73.9,68.0,82,30.16,10.0,ENE,4.6,-,N/A,,Mostly Cloudy,60,2013-07-03 10:54:00
7:54 AM,73.9,68.0,82,30.17,10.0,East,6.9,-,0.00,,Overcast,80,2013-07-03 11:54:00
8:54 AM,75.9,68.0,76,30.19,10.0,East,4.6,-,N/A,,Overcast,100,2013-07-03 12:54:00
9:54 AM,77.0,69.1,76,30.18,10.0,Calm,Calm,-,N/A,,Overcast,0,2013-07-03 13:54:00
10:54 AM,79.0,70.0,74,30.19,10.0,South,4.6,-,N/A,,Mostly Cloudy,170,2013-07-03 14:54:00
11:54 AM,79.0,69.1,72,30.19,10.0,SSE,11.5,-,N/A,,Overcast,160,2013-07-03 15:54:00
12:54 PM,81.0,70.0,69,30.17,10.0,SE,6.9,-,N/A,,Scattered Clouds,140,2013-07-03 16:54:00
1:06 PM,80.6,69.8,70,30.18,10.0,SSE,5.8,-,N/A,,Mostly Cloudy,160,2013-07-03 17:06:00
1:54 PM,82.0,70.0,67,30.17,10.0,SSW,6.9,-,N/A,,Mostly Cloudy,200,2013-07-03 17:54:00
2:01 PM,82.4,69.8,66,30.17,10.0,South,5.8,-,N/A,,Partly Cloudy,190,2013-07-03 18:01:00
2:54 PM,84.0,70.0,63,30.14,10.0,Variable,4.6,-,N/A,,Mostly Cloudy,0,2013-07-03 18:54:00
3:54 PM,84.0,70.0,63,30.14,10.0,SSE,9.2,-,N/A,,Mostly Cloudy,160,2013-07-03 19:54:00
4:54 PM,84.0,70.0,63,30.14,10.0,SSE,9.2,-,N/A,,Scattered Clouds,160,2013-07-03 20:54:00
5:54 PM,82.9,70.0,65,30.13,10.0,South,10.4,-,N/A,,Scattered Clouds,170,2013-07-03 21:54:00
6:54 PM,81.0,69.1,67,30.13,10.0,South,13.8,24.2,N/A,,Scattered Clouds,170,2013-07-03 22:54:00
7:54 PM,81.0,69.1,67,30.14,10.0,South,9.2,19.6,N/A,,Mostly Cloudy,180,2013-07-03 23:54:00
8:54 PM,80.1,69.1,69,30.16,10.0,Calm,Calm,-,N/A,,Mostly Cloudy,0,2013-07-04 00:54:00
9:54 PM,79.0,69.1,72,30.17,10.0,Variable,4.6,-,N/A,,Partly Cloudy,0,2013-07-04 01:54:00
10:54 PM,77.0,70.0,79,30.17,10.0,ENE,3.5,-,N/A,,Clear,60,2013-07-04 02:54:00
11:54 PM,75.0,69.1,82,30.18,10.0,Calm,Calm,-,N/A,,Clear,0,2013-07-04 03:54:00